| time (UTC) | temp C | wind direction | speed KPH | gust KPH | rain 1hr cm | rain 24hr cm | rain mn cm | humidity % | barometer mb |
| 20260507040530 | 9 | 78 | 0.0 | 0.0 | 0.00 | 0.71 | 0.00 | 89 | 1034.0 |
| 20260507040033 | 9 | 78 | 0.0 | 0.0 | 0.00 | 0.71 | 0.00 | 89 | 1034.3 |
| 20260507035528 | 10 | 78 | 0.0 | 0.0 | 0.00 | 0.71 | 0.71 | 89 | 1034.0 |
| 20260507035029 | 10 | 78 | 0.0 | 0.0 | 0.00 | 0.71 | 0.71 | 89 | 1034.1 |
| 20260507034531 | 10 | 78 | 0.0 | 0.0 | 0.00 | 0.71 | 0.71 | 89 | 1034.2 |
| 20260507034028 | 10 | 78 | 0.0 | 0.0 | 0.00 | 0.71 | 0.71 | 89 | 1034.3 |
| 20260507033527 | 10 | 78 | 0.0 | 0.0 | 0.00 | 0.71 | 0.71 | 89 | 1034.4 |
| 20260507033027 | 10 | 78 | 0.0 | 0.0 | 0.00 | 0.71 | 0.71 | 89 | 1034.5 |
| 20260507032525 | 10 | 78 | 0.0 | 0.0 | 0.00 | 0.71 | 0.71 | 89 | 1034.5 |
| 20260507032028 | 10 | 78 | 0.0 | 0.0 | 0.00 | 0.71 | 0.71 | 89 | 1034.6 |
| 20260507031525 | 10 | 78 | 0.0 | 0.0 | 0.00 | 0.71 | 0.71 | 89 | 1034.1 |
| 20260507031025 | 10 | 78 | 0.0 | 0.0 | 0.00 | 0.71 | 0.71 | 89 | 1033.9 |
| 20260507030525 | 10 | 78 | 0.0 | 0.0 | 0.00 | 0.71 | 0.71 | 88 | 1034.1 |
| 20260507030023 | 10 | 78 | 0.0 | 0.0 | 0.00 | 0.71 | 0.71 | 88 | 1034.0 |
| 20260507025522 | 10 | 78 | 0.0 | 0.0 | 0.00 | 0.71 | 0.71 | 88 | 1033.8 |
| 20260507025022 | 10 | 78 | 0.0 | 0.0 | 0.00 | 0.71 | 0.71 | 88 | 1034.0 |
| 20260507024522 | 10 | 78 | 0.0 | 0.0 | 0.00 | 0.71 | 0.71 | 88 | 1034.0 |
| 20260507024021 | 10 | 78 | 0.0 | 0.0 | 0.00 | 0.71 | 0.71 | 88 | 1033.9 |
| 20260507023525 | 10 | 78 | 0.0 | 0.0 | 0.00 | 0.71 | 0.71 | 88 | 1034.2 |
| 20260507023022 | 10 | 78 | 0.0 | 0.0 | 0.00 | 0.71 | 0.71 | 88 | 1034.1 |
| 20260507022520 | 10 | 78 | 0.0 | 0.0 | 0.00 | 0.71 | 0.71 | 88 | 1034.0 |
| 20260507022020 | 10 | 78 | 0.0 | 0.0 | 0.00 | 0.71 | 0.71 | 88 | 1034.3 |
| 20260507021522 | 10 | 78 | 0.0 | 0.0 | 0.00 | 0.71 | 0.71 | 88 | 1034.7 |
| 20260507021023 | 10 | 78 | 0.0 | 0.0 | 0.00 | 0.71 | 0.71 | 87 | 1034.7 |
| 20260507020518 | 10 | 78 | 0.0 | 0.0 | 0.00 | 0.71 | 0.71 | 87 | 1034.8 |
| 20260507020021 | 11 | 78 | 0.0 | 1.6 | 0.00 | 0.71 | 0.71 | 87 | 1034.7 |
| 20260507015522 | 11 | 78 | 0.0 | 1.6 | 0.00 | 0.71 | 0.71 | 87 | 1034.7 |
| 20260507015017 | 11 | 78 | 0.0 | 0.0 | 0.00 | 0.71 | 0.71 | 87 | 1034.6 |
| 20260507014517 | 11 | 78 | 0.0 | 1.6 | 0.00 | 0.71 | 0.71 | 87 | 1034.7 |
| 20260507014021 | 11 | 78 | 0.0 | 3.2 | 0.00 | 0.71 | 0.71 | 87 | 1034.6 |
| 20260507013517 | 11 | 78 | 0.0 | 4.8 | 0.00 | 0.71 | 0.71 | 87 | 1034.8 |
| 20260507013016 | 11 | 79 | 0.0 | 4.8 | 0.00 | 0.71 | 0.71 | 87 | 1034.6 |
| 20260507012516 | 11 | 73 | 0.0 | 4.8 | 0.00 | 0.71 | 0.71 | 87 | 1034.6 |
| 20260507012015 | 11 | 76 | 0.0 | 3.2 | 0.00 | 0.71 | 0.71 | 87 | 1034.7 |
| 20260507011515 | 11 | 77 | 0.0 | 0.0 | 0.00 | 0.71 | 0.71 | 87 | 1034.7 |
| 20260507011014 | 11 | 77 | 0.0 | 0.0 | 0.00 | 0.71 | 0.71 | 87 | 1034.7 |
| 20260507010513 | 11 | 77 | 0.0 | 0.0 | 0.00 | 0.71 | 0.71 | 87 | 1034.4 |
| 20260507010012 | 11 | 77 | 0.0 | 0.0 | 0.00 | 0.71 | 0.71 | 87 | 1034.3 |
| 20260507005512 | 11 | 77 | 0.0 | 1.6 | 0.00 | 0.71 | 0.71 | 87 | 1034.1 |
| 20260507005011 | 11 | 77 | 0.0 | 4.8 | 0.00 | 0.71 | 0.71 | 87 | 1034.1 |
| 20260507004510 | 11 | 77 | 0.0 | 4.8 | 0.00 | 0.71 | 0.71 | 87 | 1033.7 |
| 20260507004009 | 11 | 83 | 0.0 | 8.0 | 0.00 | 0.71 | 0.71 | 86 | 1033.7 |
| 20260507003509 | 11 | 83 | 0.0 | 8.0 | 0.00 | 0.71 | 0.71 | 86 | 1033.6 |
| 20260507003007 | 11 | 75 | 0.0 | 4.8 | 0.00 | 0.71 | 0.71 | 86 | 1033.5 |
| 20260507002507 | 11 | 76 | 0.0 | 4.8 | 0.00 | 0.71 | 0.71 | 86 | 1033.4 |
| 20260507002006 | 11 | 83 | 0.0 | 6.4 | 0.00 | 0.71 | 0.71 | 86 | 1033.3 |
| 20260507001512 | 11 | 68 | 1.6 | 6.4 | 0.00 | 0.71 | 0.71 | 86 | 1033.1 |
| 20260507001005 | 11 | 89 | 0.0 | 4.8 | 0.00 | 0.71 | 0.71 | 86 | 1032.9 |
| 20260507000503 | 11 | 89 | 0.0 | 4.8 | 0.00 | 0.71 | 0.71 | 86 | 1032.8 |
| 20260507000008 | 11 | 78 | 0.0 | 4.8 | 0.00 | 0.71 | 0.71 | 86 | 1032.6 |
| 20260506235502 | 11 | 89 | 0.0 | 4.8 | 0.00 | 0.71 | 0.71 | 86 | 1032.6 |
| 20260506235001 | 11 | 86 | 0.0 | 1.6 | 0.00 | 0.71 | 0.71 | 86 | 1032.6 |
| 20260506234603 | 11 | 88 | 0.0 | 1.6 | 0.00 | 0.71 | 0.71 | 86 | 1032.6 |
| 20260506234100 | 11 | 88 | 0.0 | 3.2 | 0.00 | 0.71 | 0.71 | 86 | 1032.3 |
| 20260506233600 | 11 | 80 | 0.0 | 9.7 | 0.00 | 0.71 | 0.71 | 85 | 1032.3 |
| 20260506233104 | 11 | 78 | 3.2 | 9.7 | 0.00 | 0.71 | 0.71 | 85 | 1032.4 |
| 20260506232558 | 12 | 82 | 0.0 | 9.7 | 0.00 | 0.71 | 0.71 | 86 | 1032.2 |
| 20260506232058 | 12 | 83 | 1.6 | 9.7 | 0.00 | 0.71 | 0.71 | 85 | 1032.1 |
| 20260506231556 | 12 | 84 | 1.6 | 14.5 | 0.00 | 0.71 | 0.71 | 85 | 1031.9 |
| 20260506231056 | 12 | 93 | 4.8 | 14.5 | 0.00 | 0.71 | 0.71 | 85 | 1031.6 |
| 20260506230555 | 12 | 84 | 1.6 | 25.7 | 0.00 | 0.71 | 0.71 | 86 | 1031.7 |
| 20260506230055 | 12 | 84 | 4.8 | 25.7 | 0.00 | 0.71 | 0.71 | 86 | 1031.7 |
| 20260506225552 | 12 | 68 | 3.2 | 14.5 | 0.00 | 0.71 | 0.71 | 86 | 1031.7 |
| 20260506225052 | 12 | 89 | 1.6 | 14.5 | 0.00 | 0.71 | 0.71 | 86 | 1031.7 |
| 20260506224602 | 12 | 84 | 3.2 | 14.5 | 0.00 | 0.71 | 0.71 | 86 | 1031.6 |
| 20260506224049 | 12 | 135 | 4.8 | 27.4 | 0.00 | 0.71 | 0.71 | 86 | 1031.4 |
| 20260506223549 | 12 | 98 | 4.8 | 27.4 | 0.00 | 0.71 | 0.71 | 86 | 1031.2 |
| 20260506223047 | 13 | 105 | 4.8 | 19.3 | 0.00 | 0.71 | 0.71 | 86 | 1031.0 |
| 20260506222550 | 13 | 69 | 3.2 | 19.3 | 0.00 | 0.71 | 0.71 | 86 | 1031.0 |
| 20260506222044 | 13 | 80 | 3.2 | 17.7 | 0.00 | 0.71 | 0.71 | 86 | 1030.8 |
| 20260506221544 | 14 | 70 | 3.2 | 19.3 | 0.00 | 0.71 | 0.71 | 86 | 1030.7 |
| 20260506221043 | 15 | 85 | 3.2 | 19.3 | 0.00 | 0.71 | 0.71 | 86 | 1030.5 |
| 20260506220544 | 15 | 41 | 6.4 | 16.1 | 0.00 | 0.71 | 0.71 | 86 | 1030.5 |
| 20260506220044 | 16 | 71 | 4.8 | 24.1 | 0.00 | 0.71 | 0.71 | 86 | 1030.2 |
| 20260506215542 | 17 | 93 | 4.8 | 24.1 | 0.00 | 0.71 | 0.71 | 85 | 1029.9 |
| 20260506215041 | 17 | 143 | 3.2 | 9.7 | 0.00 | 0.71 | 0.71 | 86 | 1029.7 |
| 20260506214556 | 17 | 76 | 1.6 | 8.0 | 0.00 | 0.71 | 0.71 | 87 | 1029.6 |
| 20260506214041 | 17 | 94 | 0.0 | 4.8 | 0.00 | 0.71 | 0.71 | 88 | 1029.5 |
| 20260506213540 | 17 | 92 | 0.0 | 4.8 | 0.00 | 0.71 | 0.71 | 88 | 1029.4 |
| 20260506213044 | 17 | 89 | 0.0 | 3.2 | 0.00 | 0.71 | 0.71 | 88 | 1029.3 |
| 20260506212541 | 17 | 91 | 0.0 | 4.8 | 0.00 | 0.71 | 0.71 | 88 | 1029.2 |
| 20260506212041 | 17 | 208 | 0.0 | 6.4 | 0.00 | 0.71 | 0.71 | 89 | 1029.1 |
| 20260506211540 | 17 | 78 | 0.0 | 6.4 | 0.00 | 0.71 | 0.71 | 89 | 1029.2 |
| 20260506211040 | 17 | 86 | 1.6 | 6.4 | 0.00 | 0.71 | 0.71 | 88 | 1029.2 |
| 20260506210539 | 17 | 86 | 0.0 | 8.0 | 0.00 | 0.71 | 0.71 | 88 | 1029.1 |
| 20260506210041 | 17 | 67 | 1.6 | 8.0 | 0.00 | 0.71 | 0.71 | 88 | 1029.0 |
| 20260506205539 | 17 | 79 | 0.0 | 6.4 | 0.00 | 0.71 | 0.71 | 88 | 1029.0 |
| 20260506205040 | 17 | 79 | 0.0 | 6.4 | 0.00 | 0.71 | 0.71 | 87 | 1028.9 |
| 20260506204539 | 17 | 67 | 0.0 | 9.7 | 0.00 | 0.71 | 0.71 | 87 | 1029.0 |
| 20260506204039 | 17 | 70 | 0.0 | 9.7 | 0.00 | 0.71 | 0.71 | 87 | 1028.8 |
| 20260506203538 | 17 | 81 | 1.6 | 19.3 | 0.00 | 0.71 | 0.71 | 87 | 1028.8 |
| 20260506203041 | 17 | 101 | 0.0 | 19.3 | 0.00 | 0.71 | 0.71 | 87 | 1028.8 |
| 20260506202538 | 17 | 85 | 3.2 | 12.9 | 0.00 | 0.71 | 0.71 | 87 | 1028.7 |
| 20260506202038 | 17 | 89 | 1.6 | 12.9 | 0.00 | 0.71 | 0.71 | 88 | 1028.8 |
| 20260506201539 | 17 | 84 | 0.0 | 12.9 | 0.00 | 0.71 | 0.71 | 89 | 1028.8 |
| 20260506201038 | 17 | 88 | 1.6 | 12.9 | 0.00 | 0.71 | 0.71 | 89 | 1028.8 |
| 20260506200539 | 16 | 79 | 1.6 | 11.3 | 0.00 | 0.71 | 0.71 | 90 | 1028.8 |
| 20260506200037 | 16 | 86 | 1.6 | 11.3 | 0.00 | 0.71 | 0.71 | 89 | 1028.9 |
| 20260506195537 | 16 | 66 | 1.6 | 9.7 | 0.00 | 0.71 | 0.71 | 90 | 1028.8 |
| 20260506195037 | 16 | 79 | 1.6 | 9.7 | 0.00 | 0.71 | 0.71 | 90 | 1028.9 |
| 20260506194548 | 16 | 91 | 1.6 | 9.7 | 0.00 | 0.71 | 0.71 | 90 | 1028.9 |
| 20260506194044 | 16 | 112 | 0.0 | 4.8 | 0.00 | 0.71 | 0.71 | 91 | 1028.8 |
| 20260506193537 | 16 | 80 | 0.0 | 4.8 | 0.00 | 0.71 | 0.71 | 91 | 1029.0 |
| 20260506193036 | 16 | 87 | 0.0 | 8.0 | 0.00 | 0.71 | 0.71 | 91 | 1029.0 |
| 20260506192536 | 16 | 89 | 1.6 | 8.0 | 0.00 | 0.71 | 0.71 | 91 | 1029.0 |
| 20260506192036 | 16 | 80 | 0.0 | 8.0 | 0.00 | 0.71 | 0.71 | 91 | 1029.1 |
| 20260506191536 | 16 | 84 | 0.0 | 8.0 | 0.00 | 0.71 | 0.71 | 92 | 1029.0 |
| 20260506191036 | 16 | 91 | 0.0 | 8.0 | 0.00 | 0.71 | 0.71 | 92 | 1029.1 |
| 20260506190538 | 16 | 88 | 0.0 | 6.4 | 0.00 | 0.71 | 0.71 | 92 | 1029.1 |
| 20260506190039 | 16 | 88 | 0.0 | 6.4 | 0.00 | 0.71 | 0.71 | 92 | 1029.2 |
| 20260506185535 | 16 | 78 | 0.0 | 9.7 | 0.00 | 0.71 | 0.71 | 92 | 1029.0 |
| 20260506185035 | 16 | 105 | 1.6 | 9.7 | 0.03 | 0.71 | 0.71 | 92 | 1029.1 |
| 20260506184534 | 16 | 91 | 1.6 | 9.7 | 0.03 | 0.71 | 0.71 | 92 | 1029.1 |
| 20260506184035 | 16 | 82 | 3.2 | 9.7 | 0.03 | 0.71 | 0.71 | 93 | 1029.0 |
| 20260506183535 | 16 | 97 | 0.0 | 4.8 | 0.03 | 0.71 | 0.71 | 93 | 1029.0 |
| 20260506183034 | 16 | 98 | 1.6 | 4.8 | 0.03 | 0.71 | 0.71 | 93 | 1029.1 |
| 20260506182535 | 16 | 91 | 0.0 | 4.8 | 0.03 | 0.71 | 0.71 | 94 | 1029.1 |
| 20260506182035 | 15 | 111 | 0.0 | 9.7 | 0.03 | 0.71 | 0.71 | 93 | 1029.2 |
| 20260506181536 | 15 | 82 | 1.6 | 9.7 | 0.03 | 0.71 | 0.71 | 93 | 1029.3 |
| 20260506181034 | 15 | 78 | 1.6 | 8.0 | 0.03 | 0.71 | 0.71 | 93 | 1029.3 |
| 20260506180534 | 15 | 78 | 0.0 | 9.7 | 0.03 | 0.71 | 0.71 | 93 | 1029.3 |
| 20260506180039 | 15 | 75 | 1.6 | 9.7 | 0.03 | 0.71 | 0.71 | 94 | 1029.3 |
| 20260506175536 | 15 | 75 | 1.6 | 9.7 | 0.05 | 0.71 | 0.71 | 94 | 1029.3 |
| 20260506175032 | 15 | 86 | 3.2 | 9.7 | 0.03 | 0.71 | 0.71 | 93 | 1029.2 |
| 20260506174535 | 15 | 98 | 1.6 | 8.0 | 0.03 | 0.71 | 0.71 | 93 | 1029.2 |
| 20260506174033 | 15 | 75 | 0.0 | 6.4 | 0.03 | 0.71 | 0.71 | 93 | 1029.3 |
| 20260506173535 | 15 | 99 | 0.0 | 11.3 | 0.03 | 0.71 | 0.71 | 94 | 1029.3 |
| 20260506173032 | 15 | 107 | 1.6 | 11.3 | 0.03 | 0.71 | 0.71 | 94 | 1029.3 |
| 20260506172532 | 15 | 93 | 0.0 | 4.8 | 0.03 | 0.71 | 0.71 | 93 | 1029.2 |
| 20260506172032 | 15 | 136 | 0.0 | 4.8 | 0.03 | 0.71 | 0.71 | 93 | 1029.3 |
| 20260506171548 | 15 | 79 | 0.0 | 6.4 | 0.03 | 0.71 | 0.71 | 93 | 1029.4 |
| 20260506171035 | 15 | 99 | 1.6 | 6.4 | 0.03 | 0.71 | 0.71 | 93 | 1029.4 |
| 20260506170538 | 15 | 77 | 0.0 | 6.4 | 0.03 | 0.71 | 0.71 | 94 | 1029.2 |
| 20260506170037 | 15 | 92 | 0.0 | 6.4 | 0.03 | 0.71 | 0.71 | 93 | 1029.4 |
| 20260506165531 | 15 | 80 | 0.0 | 6.4 | 0.00 | 0.69 | 0.69 | 93 | 1029.5 |
| 20260506165031 | 15 | 86 | 1.6 | 6.4 | 0.00 | 0.69 | 0.69 | 93 | 1029.6 |
| 20260506164533 | 15 | 90 | 0.0 | 6.4 | 0.00 | 0.69 | 0.69 | 93 | 1029.5 |
| 20260506164030 | 15 | 82 | 0.0 | 4.8 | 0.03 | 0.69 | 0.69 | 93 | 1029.3 |
| 20260506163530 | 15 | 92 | 1.6 | 4.8 | 0.03 | 0.69 | 0.69 | 93 | 1029.3 |
| 20260506163040 | 15 | 84 | 0.0 | 4.8 | 0.03 | 0.69 | 0.69 | 93 | 1029.3 |
| 20260506162529 | 15 | 99 | 0.0 | 4.8 | 0.03 | 0.69 | 0.69 | 93 | 1029.4 |
| 20260506162030 | 15 | 95 | 0.0 | 1.6 | 0.05 | 0.69 | 0.69 | 93 | 1029.5 |
| 20260506161530 | 15 | 96 | 0.0 | 3.2 | 0.05 | 0.69 | 0.69 | 93 | 1029.5 |
| 20260506161031 | 15 | 96 | 0.0 | 6.4 | 0.08 | 0.69 | 0.69 | 93 | 1029.5 |
| 20260506160529 | 15 | 109 | 0.0 | 6.4 | 0.10 | 0.69 | 0.69 | 93 | 1029.3 |
| 20260506160032 | 15 | 83 | 0.0 | 3.2 | 0.10 | 0.69 | 0.69 | 93 | 1029.4 |
| 20260506155529 | 15 | 77 | 0.0 | 4.8 | 0.13 | 0.69 | 0.69 | 93 | 1029.3 |
| 20260506155030 | 15 | 88 | 0.0 | 4.8 | 0.15 | 0.69 | 0.69 | 93 | 1029.4 |
| 20260506154529 | 15 | 95 | 0.0 | 3.2 | 0.18 | 0.69 | 0.69 | 93 | 1029.3 |
| 20260506154029 | 15 | 94 | 0.0 | 3.2 | 0.18 | 0.66 | 0.66 | 93 | 1029.3 |
| 20260506153629 | 15 | 84 | 0.0 | 3.2 | 0.18 | 0.66 | 0.66 | 93 | 1029.1 |
| 20260506153028 | 15 | 84 | 0.0 | 3.2 | 0.20 | 0.66 | 0.66 | 93 | 1029.2 |
| 20260506152529 | 15 | 151 | 0.0 | 3.2 | 0.20 | 0.66 | 0.66 | 93 | 1029.1 |
| 20260506152030 | 15 | 90 | 0.0 | 3.2 | 0.20 | 0.64 | 0.64 | 93 | 1029.2 |
| 20260506151534 | 15 | 90 | 0.0 | 3.2 | 0.20 | 0.64 | 0.64 | 93 | 1029.4 |
| 20260506151028 | 15 | 104 | 0.0 | 4.8 | 0.20 | 0.61 | 0.61 | 93 | 1029.4 |
| 20260506150528 | 15 | 153 | 0.0 | 4.8 | 0.18 | 0.58 | 0.58 | 92 | 1029.3 |
| 20260506150027 | 15 | 88 | 0.0 | 4.8 | 0.20 | 0.58 | 0.58 | 92 | 1029.5 |
| 20260506145531 | 15 | 113 | 0.0 | 4.8 | 0.18 | 0.56 | 0.56 | 92 | 1029.7 |
| 20260506145026 | 15 | 91 | 0.0 | 3.2 | 0.18 | 0.53 | 0.53 | 92 | 1029.6 |
| 20260506144527 | 15 | 98 | 0.0 | 3.2 | 0.18 | 0.51 | 0.51 | 92 | 1029.5 |
| 20260506144026 | 15 | 87 | 0.0 | 8.0 | 0.15 | 0.48 | 0.48 | 92 | 1029.5 |
| 20260506143526 | 15 | 75 | 1.6 | 8.0 | 0.15 | 0.46 | 0.46 | 92 | 1029.5 |
| 20260506143026 | 15 | 77 | 1.6 | 6.4 | 0.15 | 0.46 | 0.46 | 92 | 1029.6 |
| 20260506142525 | 15 | 87 | 0.0 | 4.8 | 0.18 | 0.46 | 0.46 | 92 | 1029.6 |
| 20260506142026 | 15 | 94 | 0.0 | 3.2 | 0.15 | 0.43 | 0.43 | 92 | 1029.5 |
| 20260506141525 | 15 | 86 | 0.0 | 3.2 | 0.15 | 0.43 | 0.43 | 92 | 1029.4 |
| 20260506141026 | 15 | 117 | 0.0 | 6.4 | 0.15 | 0.41 | 0.41 | 92 | 1029.5 |
| 20260506140525 | 15 | 84 | 0.0 | 6.4 | 0.18 | 0.41 | 0.41 | 91 | 1029.5 |
| 20260506140029 | 15 | 158 | 0.0 | 3.2 | 0.18 | 0.38 | 0.38 | 91 | 1029.5 |
| 20260506135524 | 15 | 73 | 0.0 | 4.8 | 0.18 | 0.38 | 0.38 | 91 | 1029.5 |
| 20260506135025 | 15 | 98 | 0.0 | 4.8 | 0.18 | 0.36 | 0.36 | 91 | 1029.6 |
| 20260506134523 | 15 | 94 | 0.0 | 3.2 | 0.18 | 0.33 | 0.33 | 91 | 1029.6 |
| 20260506134024 | 15 | 92 | 0.0 | 3.2 | 0.15 | 0.30 | 0.30 | 90 | 1029.7 |
| 20260506133524 | 15 | 80 | 0.0 | 3.2 | 0.18 | 0.30 | 0.30 | 90 | 1029.6 |
| 20260506133040 | 15 | 85 | 0.0 | 3.2 | 0.20 | 0.30 | 0.30 | 90 | 1029.7 |
| 20260506132522 | 15 | 80 | 0.0 | 3.2 | 0.20 | 0.28 | 0.28 | 90 | 1029.6 |
| 20260506132025 | 15 | 97 | 0.0 | 3.2 | 0.20 | 0.28 | 0.28 | 90 | 1029.6 |
| 20260506131529 | 15 | 226 | 0.0 | 3.2 | 0.23 | 0.28 | 0.28 | 90 | 1029.8 |
| 20260506131022 | 15 | 86 | 0.0 | 1.6 | 0.20 | 0.25 | 0.25 | 89 | 1029.8 |
| 20260506130522 | 15 | 84 | 0.0 | 0.0 | 0.18 | 0.23 | 0.23 | 89 | 1029.9 |
| 20260506130022 | 15 | 84 | 0.0 | 0.0 | 0.18 | 0.20 | 0.20 | 89 | 1029.9 |
| 20260506125521 | 15 | 84 | 0.0 | 0.0 | 0.18 | 0.20 | 0.20 | 88 | 1030.0 |
| 20260506125021 | 15 | 84 | 0.0 | 0.0 | 0.15 | 0.18 | 0.18 | 88 | 1030.0 |
| 20260506124521 | 15 | 84 | 0.0 | 0.0 | 0.13 | 0.15 | 0.15 | 88 | 1030.0 |
| 20260506124020 | 15 | 84 | 0.0 | 0.0 | 0.10 | 0.13 | 0.13 | 87 | 1030.1 |
| 20260506123520 | 15 | 84 | 0.0 | 0.0 | 0.13 | 0.13 | 0.13 | 87 | 1030.2 |
| 20260506123020 | 15 | 84 | 0.0 | 4.8 | 0.10 | 0.10 | 0.10 | 86 | 1030.2 |
| 20260506122519 | 15 | 84 | 0.0 | 4.8 | 0.08 | 0.08 | 0.08 | 85 | 1030.2 |
| 20260506122018 | 15 | 89 | 0.0 | 4.8 | 0.08 | 0.08 | 0.08 | 85 | 1030.1 |
| 20260506121518 | 16 | 111 | 0.0 | 6.4 | 0.05 | 0.05 | 0.05 | 84 | 1030.1 |
| 20260506121021 | 16 | 80 | 1.6 | 6.4 | 0.05 | 0.05 | 0.05 | 84 | 1030.1 |
| 20260506120518 | 16 | 82 | 0.0 | 3.2 | 0.05 | 0.05 | 0.05 | 83 | 1030.0 |
| 20260506120032 | 16 | 80 | 0.0 | 4.8 | 0.03 | 0.03 | 0.03 | 83 | 1029.9 |
| 20260506115519 | 16 | 94 | 0.0 | 4.8 | 0.03 | 0.03 | 0.03 | 83 | 1029.8 |
| 20260506115016 | 16 | 93 | 0.0 | 0.0 | 0.03 | 0.03 | 0.03 | 82 | 1029.7 |
| 20260506114516 | 16 | 89 | 0.0 | 0.0 | 0.03 | 0.03 | 0.03 | 81 | 1029.7 |
| 20260506114020 | 16 | 89 | 0.0 | 0.0 | 0.03 | 0.03 | 0.03 | 80 | 1029.7 |
| 20260506113516 | 16 | 95 | 0.0 | 0.0 | 0.00 | 0.00 | 0.00 | 80 | 1029.6 |
| 20260506113016 | 16 | 95 | 0.0 | 0.0 | 0.00 | 0.00 | 0.00 | 79 | 1029.7 |
| 20260506112516 | 17 | 95 | 0.0 | 0.0 | 0.00 | 0.00 | 0.00 | 77 | 1029.7 |
| 20260506112015 | 17 | 94 | 0.0 | 0.0 | 0.00 | 0.00 | 0.00 | 76 | 1029.7 |
| 20260506111515 | 17 | 95 | 0.0 | 0.0 | 0.00 | 0.00 | 0.00 | 73 | 1029.7 |
| 20260506111014 | 17 | 95 | 0.0 | 0.0 | 0.00 | 0.00 | 0.00 | 71 | 1029.6 |
| 20260506110518 | 17 | 95 | 0.0 | 0.0 | 0.00 | 0.00 | 0.00 | 69 | 1029.5 |
| 20260506110013 | 18 | 95 | 0.0 | 0.0 | 0.00 | 0.00 | 0.00 | 68 | 1029.3 |
| 20260506105513 | 18 | 95 | 0.0 | 0.0 | 0.00 | 0.00 | 0.00 | 67 | 1029.3 |
| 20260506105012 | 18 | 94 | 0.0 | 0.0 | 0.00 | 0.00 | 0.00 | 66 | 1029.2 |
| 20260506104512 | 18 | 94 | 0.0 | 0.0 | 0.00 | 0.00 | 0.00 | 66 | 1029.1 |
| 20260506104012 | 18 | 96 | 0.0 | 0.0 | 0.00 | 0.00 | 0.00 | 66 | 1029.1 |
| 20260506103515 | 18 | 96 | 0.0 | 4.8 | 0.00 | 0.00 | 0.00 | 65 | 1029.0 |
| 20260506103012 | 18 | 86 | 0.0 | 4.8 | 0.00 | 0.00 | 0.00 | 65 | 1029.0 |
| 20260506102512 | 18 | 122 | 0.0 | 8.0 | 0.00 | 0.00 | 0.00 | 65 | 1029.0 |
| 20260506102012 | 18 | 86 | 1.6 | 14.5 | 0.00 | 0.00 | 0.00 | 65 | 1028.9 |
| 20260506101512 | 18 | 82 | 1.6 | 14.5 | 0.00 | 0.00 | 0.00 | 64 | 1028.8 |
| 20260506101016 | 18 | 92 | 0.0 | 1.6 | 0.00 | 0.00 | 0.00 | 64 | 1028.8 |
| 20260506100511 | 18 | 96 | 0.0 | 6.4 | 0.00 | 0.00 | 0.00 | 64 | 1028.5 |
| 20260506100016 | 18 | 109 | 0.0 | 6.4 | 0.00 | 0.00 | 0.00 | 63 | 1028.4 |
| 20260506095509 | 18 | 105 | 0.0 | 3.2 | 0.00 | 0.00 | 0.00 | 63 | 1028.6 |
| 20260506095009 | 18 | 90 | 0.0 | 3.2 | 0.00 | 0.00 | 0.00 | 64 | 1029.0 |
| 20260506094508 | 18 | 99 | 0.0 | 3.2 | 0.00 | 0.00 | 0.00 | 63 | 1028.8 |
| 20260506094007 | 18 | 117 | 0.0 | 3.2 | 0.00 | 0.00 | 0.00 | 62 | 1029.0 |
| 20260506093507 | 18 | 75 | 0.0 | 3.2 | 0.00 | 0.00 | 0.00 | 62 | 1028.8 |
| 20260506093009 | 18 | 124 | 0.0 | 1.6 | 0.00 | 0.00 | 0.00 | 62 | 1028.8 |
| 20260506092510 | 18 | 101 | 0.0 | 3.2 | 0.00 | 0.00 | 0.00 | 62 | 1028.8 |
| 20260506092007 | 18 | 101 | 0.0 | 4.8 | 0.00 | 0.00 | 0.00 | 61 | 1028.8 |
| 20260506091510 | 18 | 91 | 0.0 | 4.8 | 0.00 | 0.00 | 0.00 | 61 | 1028.9 |
| 20260506091007 | 18 | 95 | 0.0 | 0.0 | 0.00 | 0.00 | 0.00 | 60 | 1029.0 |
| 20260506090509 | 18 | 95 | 0.0 | 0.0 | 0.00 | 0.00 | 0.00 | 61 | 1028.9 |
| 20260506090007 | 18 | 98 | 0.0 | 0.0 | 0.00 | 0.00 | 0.00 | 60 | 1028.9 |
| 20260506085507 | 18 | 98 | 0.0 | 0.0 | 0.00 | 0.00 | 0.00 | 60 | 1028.8 |
| 20260506085005 | 18 | 96 | 0.0 | 0.0 | 0.00 | 0.00 | 0.00 | 60 | 1028.9 |
| 20260506084508 | 18 | 96 | 0.0 | 0.0 | 0.00 | 0.00 | 0.00 | 60 | 1029.1 |
| 20260506084005 | 18 | 96 | 0.0 | 0.0 | 0.00 | 0.00 | 0.00 | 60 | 1029.1 |
| 20260506083505 | 18 | 96 | 0.0 | 6.4 | 0.00 | 0.00 | 0.00 | 59 | 1029.0 |
| 20260506083007 | 18 | 96 | 0.0 | 6.4 | 0.00 | 0.00 | 0.00 | 59 | 1029.1 |
| 20260506082505 | 18 | 93 | 0.0 | 0.0 | 0.00 | 0.00 | 0.00 | 59 | 1029.2 |
| 20260506082003 | 18 | 93 | 0.0 | 0.0 | 0.00 | 0.00 | 0.00 | 59 | 1029.0 |
| 20260506081503 | 18 | 93 | 0.0 | 0.0 | 0.00 | 0.00 | 0.00 | 59 | 1029.0 |
| 20260506081003 | 18 | 93 | 0.0 | 0.0 | 0.00 | 0.00 | 0.00 | 58 | 1029.2 |
| 20260506080503 | 18 | 93 | 0.0 | 3.2 | 0.00 | 0.00 | 0.00 | 58 | 1029.2 |
| 20260506073100 | 18 | 90 | 0.0 | 0.0 | 0.00 | 0.00 | 0.00 | 59 | 1029.1 |
| 20260506072600 | 18 | 105 | 0.0 | 4.8 | 0.00 | 0.00 | 0.00 | 59 | 1029.1 |
| 20260506072100 | 18 | 79 | 0.0 | 4.8 | 0.00 | 0.00 | 0.00 | 59 | 1029.2 |
| 20260506071558 | 18 | 84 | 0.0 | 0.0 | 0.00 | 0.00 | 0.00 | 58 | 1029.2 |
| 20260506071058 | 18 | 89 | 0.0 | 3.2 | 0.00 | 0.00 | 0.00 | 58 | 1029.2 |
| 20260506070558 | 18 | 89 | 0.0 | 3.2 | 0.00 | 0.00 | 0.00 | 58 | 1029.2 |
| 20260506062050 | 17 | 83 | 0.0 | 0.0 | 0.00 | 0.00 | 0.00 | 62 | 1029.8 |
| 20260506061554 | 17 | 82 | 0.0 | 0.0 | 0.00 | 0.00 | 0.00 | 62 | 1029.9 |
| 20260506061050 | 17 | 94 | 0.0 | 0.0 | 0.00 | 0.00 | 0.00 | 62 | 1030.0 |
| 20260506060546 | 17 | 86 | 0.0 | 0.0 | 0.00 | 0.00 | 0.00 | 63 | 1030.0 |
| 20260506051040 | 15 | 84 | 0.0 | 0.0 | 0.00 | 0.00 | 0.00 | 71 | 1030.4 |
| 20260506050536 | 15 | 84 | 0.0 | 0.0 | 0.00 | 0.00 | 0.00 | 71 | 1030.5 |
| 20260506045035 | 15 | 81 | 0.0 | 1.6 | 0.00 | 0.00 | 0.00 | 76 | 1030.4 |
| 20260506044533 | 14 | 81 | 0.0 | 1.6 | 0.00 | 0.00 | 0.00 | 78 | 1030.4 |
| 20260506044032 | 14 | 81 | 0.0 | 1.6 | 0.00 | 0.00 | 0.00 | 79 | 1030.4 |
| 20260506043531 | 14 | 81 | 0.0 | 3.2 | 0.00 | 0.00 | 0.00 | 80 | 1030.3 |
| 20260506043033 | 14 | 81 | 0.0 | 3.2 | 0.00 | 0.00 | 0.00 | 81 | 1030.3 |
| 20260506042531 | 14 | 91 | 0.0 | 0.0 | 0.00 | 0.00 | 0.00 | 80 | 1030.3 |
| 20260506042029 | 14 | 91 | 0.0 | 0.0 | 0.00 | 0.00 | 0.00 | 79 | 1030.3 |
| 20260506041528 | 14 | 91 | 0.0 | 0.0 | 0.00 | 0.00 | 0.00 | 79 | 1030.3 |
| 20260506041026 | 15 | 91 | 0.0 | 0.0 | 0.00 | 0.00 | 0.00 | 78 | 1030.3 |